Location: Boullarre
(49.1305°N, 3.0047°E)
Time: 00:26:45
(UTC+00:00)

ATLAS 5 CENTAUR R/B - Pass Details

Date: 03 February 2023
Orbit: 460 x 1177 km, 63.3° (Epoch: 01 April)

Event Time Altitude Azimuth Distance (km) Brightness Sun altitude
Rises 20:17:11 0° 317° (NW) 2,874 5.7 -34.3°
Reaches altitude 10° 20:19:45 10° 334° (NNW) 2,079 4.7 -34.7°
Enters shadow 20:20:25 13° 340° (NNW) 1,912 4.4 -34.8°
